Simultaneous Nadir Overpasses (SNOs) Predictions

Prediction of SNOs between GOES-16 and NPP Satellite Orbit:

Table of predicted SNOs for the next 14.0 days since TLE Epoch: 10/8/2022
Index Date Time (GOES-16) GOES-16 Lat,Lon NPP Lat,Lon Distance(km) Time Diff (sec)
1 10/09/2022 06:27:10 0.06, -75.19 0.03, -75.05 16.45 80
2 10/11/2022 18:27:42 -0.06, -75.22 -0.19, -75.82 68.63 80
3 10/12/2022 18:11:38 -0.06, -75.23 0.84, -71.29 449.09 80
4 10/14/2022 06:30:45 0.05, -75.24 0.35, -76.55 149.92 80
5 10/15/2022 06:14:40 0.05, -75.25 -0.68, -72.03 367.88 80
6 10/16/2022 18:33:57 -0.04, -75.27 -0.49, -77.33 234.09 80
7 10/17/2022 18:17:52 -0.04, -75.29 0.54, -72.80 284.12 80
8 10/19/2022 06:39:39 0.03, -75.31 0.65, -78.06 313.80 80
9 10/20/2022 06:18:15 0.03, -75.33 -0.39, -73.54 204.75 80
10 10/21/2022 18:40:10 -0.03, -75.36 -0.83, -78.83 396.08 80
